{"data":{"norad_id":54361,"intl_designator":"2022-158A","name":"EOS-6 (OCEANSAT-3)","alt_names":[],"object_type":"PAYLOAD","status":"ACTIVE","operator":null,"country":"IND","launch_date":"2022-11-26","launch_site_code":"SRILR","launch_vehicle":null,"mission":null,"orbit_class":"UNKNOWN","rcs_meters":null,"size_class":null,"mass_kg":null,"dimensions":null,"purposes":[],"wikipedia_slug":null,"has_3d_model":false,"image_url":null,"decayed_at":null,"tle_current":{"epoch":"2026-05-25T04:55:27.768864Z","epoch_age_seconds":51257,"freshness":"FRESH","line1":"1 54361U 22158A   26145.20518251  .00000232  00000+0  75908-4 0  9998","line2":"2 54361  98.3524 243.7059 0002123  76.1957 283.9472 14.46984189184513","mean_motion":14.46984189,"eccentricity":0.0002123,"inclination_deg":98.3524,"raan_deg":243.7059,"arg_perigee_deg":76.1957,"mean_anomaly_deg":283.9472,"bstar":7.5908e-5,"rev_number":18451,"period_min":99.517327898045,"perigee_km":734.00534817569,"apogee_km":737.02580505972,"semimajor_km":7113.6525766177,"source":"CELESTRAK","updated_at":"2026-05-25T13:37:58.666778Z"}}}